{"data":{"norad_id":56012,"epoch":"2026-05-24T21:22:30.476064Z","epoch_age_seconds":94714,"freshness":"FRESH","line1":"1 56012U 23042AC  26144.89063051 -.00000154  00000+0  39150-5 0  9997","line2":"2 56012  43.0028 334.5330 0000992 246.1107 113.9640 15.27577061174697","mean_motion":15.27577061,"eccentricity":9.92e-5,"inclination_deg":43.0028,"raan_deg":334.533,"arg_perigee_deg":246.1107,"mean_anomaly_deg":113.964,"bstar":3.915e-6,"rev_number":17469,"period_min":94.266930079281,"perigee_km":482.37726594333,"apogee_km":483.73852701079,"semimajor_km":6861.1948964771,"source":"CELESTRAK","updated_at":"2026-05-25T13:38:17.926744Z"}}